SUOMI NPP

Last updated on Wed Sep 23 2026 00:03:10 GMT+0000 (Coordinated Universal Time)

1 37849U 11061A 26265.61073112 .00000036 00000+0 38101-4 0 9997 2 37849 98.8015 205.8432 0002696 60.6411 299.5034 14.19534482772266
UTC large
Height (km)
Speed (km/s)
/
Latitude / Longitude
Inclination (degrees)
Orbital Period (minutes)
Azimuth
Elevation
Range (km)
Doppler Factor

Next 0 passes for location: London (51.5072 / 0.1276)

No passes found over London.
SUOMI NPP